Time,TemperatureF,DewpointF,PressureIn,WindDirection,WindDirectionDegrees,WindSpeedMPH,WindSpeedGustMPH,Humidity,HourlyPrecipIn,Conditions,Clouds,dailyrainin,SoftwareType,DateUTC
2013-02-16 00:11:00,31.7,26.0,30.11,NNE,25,5.0,-999.0,79,-99.99,,,0.02,weatherlink.com 1.10,2013-02-16 05:11:00,
2013-02-16 00:26:00,31.2,26.0,30.11,NNE,24,0.0,-999.0,80,-99.99,,,0.02,weatherlink.com 1.10,2013-02-16 05:26:00,
2013-02-16 00:41:00,30.8,25.0,30.11,NNE,24,0.0,-999.0,80,-99.99,,,0.02,weatherlink.com 1.10,2013-02-16 05:41:00,
2013-02-16 00:57:00,30.6,25.0,30.11,NNE,24,0.0,-999.0,80,-99.99,,,0.02,weatherlink.com 1.10,2013-02-16 05:57:00,
2013-02-16 01:11:00,30.3,25.0,30.11,NNE,24,0.0,-999.0,80,-99.99,,,0.02,weatherlink.com 1.10,2013-02-16 06:11:00,
2013-02-16 01:26:00,30.0,25.0,30.11,NNE,24,0.0,-999.0,80,-99.99,,,0.00,weatherlink.com 1.10,2013-02-16 06:26:00,
2013-02-16 01:42:00,29.5,24.0,30.11,NNE,24,0.0,-999.0,80,-99.99,,,0.00,weatherlink.com 1.10,2013-02-16 06:42:00,
2013-02-16 01:56:00,29.1,24.0,30.10,NNE,24,0.0,-999.0,80,-99.99,,,0.00,weatherlink.com 1.10,2013-02-16 06:56:00,
2013-02-16 02:12:00,28.6,24.0,30.10,NNE,24,0.0,-999.0,81,-99.99,,,0.00,weatherlink.com 1.10,2013-02-16 07:12:00,
2013-02-16 02:27:00,28.0,23.0,30.09,NNE,24,0.0,-999.0,82,-99.99,,,0.00,weatherlink.com 1.10,2013-02-16 07:27:00,
2013-02-16 02:42:00,27.2,22.0,30.09,NNE,24,0.0,-999.0,82,-99.99,,,0.00,weatherlink.com 1.10,2013-02-16 07:42:00,
2013-02-16 02:57:00,26.5,22.0,30.09,NNE,24,0.0,-999.0,84,-99.99,,,0.00,weatherlink.com 1.10,2013-02-16 07:57:00,
2013-02-16 03:12:00,26.5,23.0,30.09,NNE,24,0.0,-999.0,86,-99.99,,,0.00,weatherlink.com 1.10,2013-02-16 08:12:00,
2013-02-16 03:27:00,26.5,23.0,30.08,NNE,24,0.0,-999.0,87,-99.99,,,0.00,weatherlink.com 1.10,2013-02-16 08:27:00,
2013-02-16 03:42:00,26.3,23.0,30.08,NNE,24,0.0,-999.0,86,-99.99,,,0.00,weatherlink.com 1.10,2013-02-16 08:42:00,
2013-02-16 03:57:00,26.2,23.0,30.08,NNE,24,0.0,-999.0,87,-99.99,,,0.00,weatherlink.com 1.10,2013-02-16 08:57:00,
2013-02-16 04:12:00,26.1,23.0,30.08,NNE,24,0.0,-999.0,88,-99.99,,,0.00,weatherlink.com 1.10,2013-02-16 09:12:00,
2013-02-16 04:27:00,26.3,23.0,30.07,NNE,24,0.0,-999.0,88,-99.99,,,0.00,weatherlink.com 1.10,2013-02-16 09:27:00,
2013-02-16 04:42:00,26.1,23.0,30.07,NNE,24,0.0,-999.0,88,-99.99,,,0.00,weatherlink.com 1.10,2013-02-16 09:42:00,
2013-02-16 04:57:00,25.5,22.0,30.07,NNE,24,0.0,-999.0,87,-99.99,,,0.00,weatherlink.com 1.10,2013-02-16 09:57:00,
2013-02-16 05:12:00,25.0,22.0,30.07,NNE,24,0.0,-999.0,88,-99.99,,,0.00,weatherlink.com 1.10,2013-02-16 10:12:00,
2013-02-16 05:27:00,24.5,22.0,30.07,NNE,24,0.0,-999.0,88,-99.99,,,0.00,weatherlink.com 1.10,2013-02-16 10:27:00,
2013-02-16 05:42:00,24.2,22.0,30.07,NNE,24,0.0,-999.0,89,-99.99,,,0.00,weatherlink.com 1.10,2013-02-16 10:42:00,
2013-02-16 05:57:00,23.6,21.0,30.07,NNE,24,0.0,-999.0,89,-99.99,,,0.00,weatherlink.com 1.10,2013-02-16 10:57:00,
2013-02-16 06:12:00,23.4,21.0,30.07,NNE,24,0.0,-999.0,90,-99.99,,,0.00,weatherlink.com 1.10,2013-02-16 11:12:00,
2013-02-16 06:27:00,23.0,21.0,30.07,NNE,24,0.0,-999.0,90,-99.99,,,0.00,weatherlink.com 1.10,2013-02-16 11:27:00,
2013-02-16 06:42:00,22.6,20.0,30.07,NNE,24,0.0,-999.0,90,-99.99,,,0.00,weatherlink.com 1.10,2013-02-16 11:42:00,
2013-02-16 06:57:00,22.5,20.0,30.07,NNE,24,0.0,-999.0,90,-99.99,,,0.00,weatherlink.com 1.10,2013-02-16 11:57:00,
2013-02-16 07:12:00,22.3,20.0,30.07,NNE,24,0.0,-999.0,90,-99.99,,,0.00,weatherlink.com 1.10,2013-02-16 12:12:00,
2013-02-16 07:42:00,22.4,20.0,30.08,NNE,24,0.0,-999.0,91,-99.99,,,0.00,weatherlink.com 1.10,2013-02-16 12:42:00,
2013-02-16 07:57:00,22.7,21.0,30.08,NNE,24,0.0,-999.0,91,-99.99,,,0.00,weatherlink.com 1.10,2013-02-16 12:57:00,
2013-02-16 08:12:00,22.8,21.0,30.08,NNE,24,0.0,-999.0,91,-99.99,,,0.00,weatherlink.com 1.10,2013-02-16 13:12:00,
2013-02-16 08:27:00,23.3,21.0,30.08,NNE,24,0.0,-999.0,91,-99.99,,,0.00,weatherlink.com 1.10,2013-02-16 13:27:00,
2013-02-16 08:42:00,23.7,21.0,30.08,NNE,24,0.0,-999.0,90,-99.99,,,0.00,weatherlink.com 1.10,2013-02-16 13:42:00,
2013-02-16 08:58:00,24.9,23.0,30.08,NNE,24,3.0,-999.0,91,-99.99,,,0.00,weatherlink.com 1.10,2013-02-16 13:58:00,
2013-02-16 09:12:00,26.1,24.0,30.08,NNE,22,2.0,-999.0,90,-99.99,,,0.00,weatherlink.com 1.10,2013-02-16 14:12:00,
2013-02-16 09:28:00,27.1,24.0,30.07,NNE,22,0.0,-999.0,88,-99.99,,,0.00,weatherlink.com 1.10,2013-02-16 14:28:00,
2013-02-16 09:43:00,28.4,25.0,30.07,NNE,22,0.0,-999.0,86,-99.99,,,0.00,weatherlink.com 1.10,2013-02-16 14:43:00,
2013-02-16 09:58:00,29.4,25.0,30.07,NNE,22,0.0,-999.0,82,-99.99,,,0.00,weatherlink.com 1.10,2013-02-16 14:58:00,
2013-02-16 10:12:00,30.2,23.0,30.07,NNE,21,1.0,-999.0,75,-99.99,,,0.00,weatherlink.com 1.10,2013-02-16 15:12:00,
2013-02-16 10:28:00,30.9,21.0,30.07,ENE,71,3.0,-999.0,66,-99.99,,,0.00,weatherlink.com 1.10,2013-02-16 15:28:00,
2013-02-16 10:42:00,31.6,21.0,30.07,ENE,72,0.0,-999.0,64,-99.99,,,0.00,weatherlink.com 1.10,2013-02-16 15:42:00,
2013-02-16 10:57:00,32.3,19.0,30.07,NW,321,0.0,-999.0,59,-99.99,,,0.00,weatherlink.com 1.10,2013-02-16 15:57:00,
2013-02-16 11:12:00,32.9,19.0,30.07,WNW,301,7.0,-999.0,57,-99.99,,,0.00,weatherlink.com 1.10,2013-02-16 16:12:00,
2013-02-16 11:27:00,32.9,19.0,30.07,North,355,9.0,-999.0,56,-99.99,,,0.00,weatherlink.com 1.10,2013-02-16 16:27:00,
2013-02-16 11:43:00,32.9,18.0,30.07,NE,55,4.0,-999.0,54,-99.99,,,0.00,weatherlink.com 1.10,2013-02-16 16:43:00,
2013-02-16 11:58:00,33.2,18.0,30.06,WNW,294,11.0,-999.0,55,-99.99,,,0.00,weatherlink.com 1.10,2013-02-16 16:58:00,
2013-02-16 12:13:00,32.8,18.0,30.06,WNW,298,4.0,-999.0,55,-99.99,,,0.00,weatherlink.com 1.10,2013-02-16 17:13:00,
2013-02-16 12:28:00,32.9,20.0,30.05,NW,316,2.0,-999.0,59,-99.99,,,0.00,weatherlink.com 1.10,2013-02-16 17:28:00,
2013-02-16 12:43:00,33.0,19.0,30.05,WNW,288,9.0,-999.0,56,-99.99,,,0.00,weatherlink.com 1.10,2013-02-16 17:43:00,
2013-02-16 12:58:00,32.4,19.0,30.05,NW,305,9.0,-999.0,58,-99.99,,,0.00,weatherlink.com 1.10,2013-02-16 17:58:00,
2013-02-16 13:13:00,30.8,22.0,30.04,WNW,302,7.0,-999.0,70,-99.99,,,0.00,weatherlink.com 1.10,2013-02-16 18:13:00,
2013-02-16 13:28:00,33.4,21.0,30.04,WNW,294,6.0,-999.0,61,-99.99,,,0.00,weatherlink.com 1.10,2013-02-16 18:28:00,
2013-02-16 13:43:00,33.5,20.0,30.03,WNW,290,9.0,-999.0,59,-99.99,,,0.00,weatherlink.com 1.10,2013-02-16 18:43:00,
2013-02-16 13:58:00,31.9,21.0,30.03,WNW,302,11.0,-999.0,65,-99.99,,,0.00,weatherlink.com 1.10,2013-02-16 18:58:00,
2013-02-16 14:13:00,32.4,21.0,30.03,NW,321,6.0,-999.0,63,-99.99,,,0.00,weatherlink.com 1.10,2013-02-16 19:13:00,
2013-02-16 14:28:00,32.5,21.0,30.02,WNW,300,8.0,-999.0,62,-99.99,,,0.00,weatherlink.com 1.10,2013-02-16 19:28:00,
2013-02-16 14:43:00,34.1,21.0,30.02,NW,315,16.0,-999.0,60,-99.99,,,0.00,weatherlink.com 1.10,2013-02-16 19:43:00,
2013-02-16 14:58:00,32.6,22.0,30.02,WNW,284,17.0,-999.0,64,-99.99,,,0.00,weatherlink.com 1.10,2013-02-16 19:58:00,
2013-02-16 15:13:00,33.9,22.0,30.02,West,272,12.0,-999.0,61,-99.99,,,0.00,weatherlink.com 1.10,2013-02-16 20:13:00,
2013-02-16 15:28:00,32.5,20.0,30.02,West,275,6.0,-999.0,61,-99.99,,,0.00,weatherlink.com 1.10,2013-02-16 20:28:00,
2013-02-16 15:43:00,33.7,18.0,30.02,WNW,290,9.0,-999.0,54,-99.99,,,0.00,weatherlink.com 1.10,2013-02-16 20:43:00,
2013-02-16 15:58:00,33.4,15.0,30.02,WNW,293,9.0,-999.0,48,-99.99,,,0.00,weatherlink.com 1.10,2013-02-16 20:58:00,
2013-02-16 16:13:00,34.0,16.0,30.02,NW,323,10.0,-999.0,47,-99.99,,,0.00,weatherlink.com 1.10,2013-02-16 21:13:00,
2013-02-16 16:28:00,33.9,13.0,30.02,NW,317,9.0,-999.0,43,-99.99,,,0.00,weatherlink.com 1.10,2013-02-16 21:28:00,
2013-02-16 16:43:00,33.5,13.0,30.02,NW,324,13.0,-999.0,42,-99.99,,,0.00,weatherlink.com 1.10,2013-02-16 21:43:00,
2013-02-16 16:58:00,33.4,11.0,30.03,NW,307,11.0,-999.0,40,-99.99,,,0.00,weatherlink.com 1.10,2013-02-16 21:58:00,
2013-02-16 17:13:00,33.4,11.0,30.03,NW,323,8.0,-999.0,40,-99.99,,,0.00,weatherlink.com 1.10,2013-02-16 22:13:00,
2013-02-16 17:28:00,33.1,11.0,30.04,NW,319,6.0,-999.0,40,-99.99,,,0.00,weatherlink.com 1.10,2013-02-16 22:28:00,
2013-02-16 17:43:00,32.6,12.0,30.04,NW,319,12.0,-999.0,42,-99.99,,,0.00,weatherlink.com 1.10,2013-02-16 22:43:00,
2013-02-16 17:58:00,32.1,12.0,30.04,WNW,291,9.0,-999.0,44,-99.99,,,0.00,weatherlink.com 1.10,2013-02-16 22:58:00,
2013-02-16 18:13:00,31.6,12.0,30.04,WNW,297,7.0,-999.0,45,-99.99,,,0.00,weatherlink.com 1.10,2013-02-16 23:13:00,
2013-02-16 18:28:00,31.3,13.0,30.05,NW,317,6.0,-999.0,46,-99.99,,,0.00,weatherlink.com 1.10,2013-02-16 23:28:00,
2013-02-16 18:43:00,31.2,11.0,30.05,NW,319,8.0,-999.0,44,-99.99,,,0.00,weatherlink.com 1.10,2013-02-16 23:43:00,
2013-02-16 18:58:00,31.1,11.0,30.05,NW,309,8.0,-999.0,43,-99.99,,,0.00,weatherlink.com 1.10,2013-02-16 23:58:00,
2013-02-16 19:13:00,30.6,11.0,30.06,NW,320,3.0,-999.0,45,-99.99,,,0.00,weatherlink.com 1.10,2013-02-17 00:13:00,
2013-02-16 19:28:00,30.1,12.0,30.06,NW,319,2.0,-999.0,48,-99.99,,,0.00,weatherlink.com 1.10,2013-02-17 00:28:00,
2013-02-16 19:43:00,29.8,13.0,30.06,NW,311,2.0,-999.0,50,-99.99,,,0.00,weatherlink.com 1.10,2013-02-17 00:43:00,
2013-02-16 19:58:00,29.3,14.0,30.07,NW,316,3.0,-999.0,52,-99.99,,,0.00,weatherlink.com 1.10,2013-02-17 00:58:00,
2013-02-16 20:13:00,29.2,13.0,30.07,NW,305,6.0,-999.0,52,-99.99,,,0.00,weatherlink.com 1.10,2013-02-17 01:13:00,
2013-02-16 20:28:00,29.0,13.0,30.07,NNW,336,5.0,-999.0,52,-99.99,,,0.00,weatherlink.com 1.10,2013-02-17 01:28:00,
2013-02-16 20:43:00,28.7,13.0,30.07,NW,313,6.0,-999.0,52,-99.99,,,0.00,weatherlink.com 1.10,2013-02-17 01:43:00,
2013-02-16 20:58:00,28.6,12.0,30.08,NW,317,6.0,-999.0,50,-99.99,,,0.00,weatherlink.com 1.10,2013-02-17 01:58:00,
2013-02-16 21:29:00,28.0,11.0,30.09,WNW,296,8.0,-999.0,49,-99.99,,,0.00,weatherlink.com 1.10,2013-02-17 02:29:00,
2013-02-16 21:43:00,27.9,11.0,30.09,NW,306,5.0,-999.0,49,-99.99,,,0.00,weatherlink.com 1.10,2013-02-17 02:43:00,
2013-02-16 21:58:00,27.5,10.0,30.10,NW,305,7.0,-999.0,49,-99.99,,,0.00,weatherlink.com 1.10,2013-02-17 02:58:00,
2013-02-16 22:13:00,27.4,10.0,30.10,NW,306,7.0,-999.0,49,-99.99,,,0.00,weatherlink.com 1.10,2013-02-17 03:13:00,
2013-02-16 22:29:00,27.5,11.0,30.11,NW,313,7.0,-999.0,50,-99.99,,,0.00,weatherlink.com 1.10,2013-02-17 03:29:00,
2013-02-16 22:43:00,26.9,14.0,30.12,North,9,3.0,-999.0,58,-99.99,,,0.00,weatherlink.com 1.10,2013-02-17 03:43:00,
2013-02-16 22:58:00,26.0,14.0,30.12,NW,323,2.0,-999.0,62,-99.99,,,0.00,weatherlink.com 1.10,2013-02-17 03:58:00,
2013-02-16 23:14:00,25.7,15.0,30.13,NNE,24,3.0,-999.0,64,-99.99,,,0.00,weatherlink.com 1.10,2013-02-17 04:14:00,
2013-02-16 23:29:00,25.4,16.0,30.13,NW,316,11.0,-999.0,67,-99.99,,,0.00,weatherlink.com 1.10,2013-02-17 04:29:00,
2013-02-16 23:44:00,24.7,18.0,30.13,NNW,338,1.0,-999.0,75,-99.99,,,0.00,weatherlink.com 1.10,2013-02-17 04:44:00,
2013-02-16 23:59:00,24.4,18.0,30.14,NNW,330,6.0,-999.0,75,-99.99,,,0.00,weatherlink.com 1.10,2013-02-17 04:59:00,